Regional Weather Roundup
Issued by NWS Newport/Morehead, NC

Current Version | Previous Version | Text Only | Print | Product List | Glossary On
Versions: 1 2 3 4 5 6 7 8 9 10 11 12 13 14 15 16 17 18 19 20 21 22 23 24 25 26 27 28 29 30 31 32 33 34 35 36 37 38 39 40 41 42 43 44 45 46 47 48
000
ASUS42 KMHX 210510
RWRMHX
WEATHER ROUNDUP FOR EASTERN NORTH CAROLINA
NATIONAL WEATHER SERVICE NEWPORT/MOREHEAD CITY NC
100 AM EDT MON APR 21 2014

NOTE: "FAIR" INDICATES FEW OR NO CLOUDS BELOW 12,000 FEET
WITH NO SIGNIFICANT WEATHER AND/OR OBSTRUCTIONS TO VISIBILITY

NCZ015>017-031-032-045>047-102-103-210600-
NORTH COAST

CITY           SKY/WX    TMP DP  RH WIND       PRES   REMARKS
EDENTON        CLOUDY    48  43  82 N12G22    30.16F
ELIZABETH CITY CLOUDY    48  42  80 N22       30.17F
KITTY HAWK     CLOUDY    47  46  93 N13G21    30.11F FOG
MANTEO         CLOUDY    47  46  93 N20G31    30.11F

$$

NCZ045>047-081-094-103-104-210600-
CENTRAL COAST

CITY           SKY/WX    TMP DP  RH WIND       PRES   REMARKS
FRISCO         CLOUDY    49  49 100 N20G31    30.03F
SWANQUARTER      N/A     48 N/A N/A N9G22     30.06F

$$

NCZ095-097-098-100-101-210600-
SOUTHERN COAST

CITY           SKY/WX    TMP DP  RH WIND       PRES   REMARKS
BEAUFORT       CLOUDY    51  48  89 N14G29    30.07S
CEDAR ISLAND     N/A     52 N/A N/A N26G37    30.12S
JACKSONVILLE   CLOUDY    52  45  77 N16       30.11F
NEWPORT          N/A     50  48  93 N14         N/A
PINEY ISLAND   CLOUDY    53  50  89 N25G32    30.07F
WILMINGTON     CLOUDY    54  43  66 N15G28    30.10F


$$

NCZ011>013-027>030-043-044-078>080-089-090>093-098-210600-
COASTAL PLAIN

CITY           SKY/WX    TMP DP  RH WIND       PRES   REMARKS
AHOSKIE        MOCLDY    48  34  59 N9        30.21F
CLINTON        CLOUDY    54  42  62 NE9       30.16F
ELIZABETHTOWN  PTCLDY    55  41  60 N3        30.14F
GOLDSBORO      CLOUDY    53  37  54 N9        30.15F
GREENVILLE     CLOUDY    50  37  62 N12       30.19S
HAVELOCK       CLOUDY    51  45  79 N21G29    30.10F
KENANSVILLE    MOCLDY    52  39  62 N12G18    30.16S
KINSTON        CLOUDY    52  40  63 N12G17    30.17F
NEW BERN       CLOUDY    52  45  77 N13G21    30.13F
RICHLANDS      CLOUDY    52  50  93 N10G16    30.13F
ROANOKE RAPIDS NOT AVBL
ROCKY MOUNT    CLOUDY    50  34  54 N13       30.20F
WASHINGTON     CLOUDY    53  47  80 N12       30.17S
WHITEVILLE     CLOUDY    56  42  58 N8        30.12F

$$

AMZ130-135-150-152-154-156-158-170-250-252-270-ANZ085-086-088-633-658-670-210600-
MARINE OBSERVATIONS

STATION/POSITION TIME  TEMP    WIND        PRES    WAVE   SWELL
                       AIR SEA DIR/SP/G            HT/PER HT/PER
                 (UTC) (F)     (DEG/KT/KT) (MB)    (FT/S) (FT/S)
CHESAPEAKE LIGHT 0400   45      20/ 26/ 29 1022.5
BUOY 44014       0500   50 48   10/ 21/ 27 1019.0   12/11   8/11
DUCK             0500   48 49   10/ 20/ 26 1019.3
2E DUCK          0500      48                N/A    11/12   7/12
OREGON INLET     0500   48 51  360/ 20/ 28 1018.7
BUOY 44095       0500      48                N/A    14/11   8/11
HATTERAS CG      0500   52 55  360/ 22/ 29 1017.0
DIAMOND BUOY     0500   58 75  360/ 33/ 41 1013.6   16/12  11/12
CAPE LOOKOUT     0400   52     360/ 27/ 31 1017.4
BEAUFORT LAB     0500   52 57  360/ 19/ 25 1017.5
30 SE NEW RIVER  0500   56 68  360/ 29/ 33 1016.6   11/ 6   5/10
5 SE WRIGHTSVILL 0400   56 58   10/ 27/ 31 1017.9
FRYING PAN BUOY  0500   58 69   10/ 29/ 35 1015.8   11/ 8   3/11
BUOY 41001       NOT AVBL
BUOY 41002       NOT AVBL
BUOY 41004       NOT AVBL

$$



USA.gov is the U.S. government's official web portal to all federal, state and local government web resources and services.